Socorro, NM

3:50 AM MDT on September 28, 2016 (GMT -0600)
Socorro Municipal

Weather History for KONM - May, 2013

Change the Weather History Date:

Sunday, May 26, 2013

  Actual Average Record
Temperature  
Mean Temperature 74 °F -  
Max Temperature 92 °F 86 °F 93 °F (2011)
Min Temperature 57 °F 50 °F 46 °F (2011)
Cooling Degree Days 10    
Growing Degree Days 24 (Base 50)    
Moisture  
Dew Point 13 °F    
Average Humidity 10    
Maximum Humidity 20    
Minimum Humidity 4    
Precipitation  
Precipitation 0.00 in - - ()
Sea Level Pressure  
Sea Level Pressure 30.03 in    
Wind  
Wind Speed 6 mph (SSW)    
Max Wind Speed 21 mph    
Max Gust Speed 30 mph    
Visibility 10 miles    
Events      
Averages and records for this station are not official NWS values.
T = Trace of Precipitation, MM = Missing Value Source: NWS Daily Summary

Daily Weather History Graph

Daily Weather History Graph

Search for Another Location

Airport or City:

Trip Planner

Search our weather history database for the weather conditions in past years. The results will help you decide how hot, cold, wet, or windy it might be!

Date:

Astronomy

May. 26, 2013 Rise Set
Actual Time 5:59 AM MDT 8:10 PM MDT
Civil Twilight 5:31 AM MDT 8:38 PM MDT
Nautical Twilight 4:56 AM MDT 9:13 PM MDT
Astronomical Twilight 4:18 AM MDT 9:51 PM MDT
Moon 10:01 PM MDT (5/26) 7:31 AM MDT (5/26)
Length of Visible Light 15h 07m
Length of Day
14h 10m
Waning Gibbous, 96% of the Moon is Illuminated
May 26
Waning Gibbous
May 31
Last Quarter
Jun 8
New
Jun 16
First Quarter
Jun 23
Full

Hourly Weather History & Observations

Time (MDT) Temp. Dew Point Humidity Pressure Visibility Wind Dir Wind Speed Gust Speed Precip Events Conditions
12:15 AM 67.6 °F 15.6 °F 14% 30.02 in 10.0 mi North 3.5 mph - N/A   Clear
12:35 AM 69.3 °F 15.8 °F 13% 30.02 in 10.0 mi Calm Calm - N/A   Clear
12:55 AM 69.8 °F 15.6 °F 13% 30.03 in 10.0 mi NW 4.6 mph - N/A   Clear
1:15 AM 72.3 °F 16.0 °F 12% 30.04 in 10.0 mi Calm Calm - N/A   Clear
1:35 AM 68.5 °F 15.4 °F 13% 30.03 in 10.0 mi West 4.6 mph - N/A   Clear
1:55 AM 64.9 °F 14.7 °F 14% 30.04 in 10.0 mi Calm Calm - N/A   Clear
2:15 AM 66.0 °F 14.7 °F 14% 30.04 in 10.0 mi West 5.8 mph - N/A   Clear
2:35 AM 63.5 °F 14.2 °F 15% 30.05 in 10.0 mi NNW 3.5 mph - N/A   Clear
2:55 AM 65.1 °F 15.6 °F 15% 30.05 in 10.0 mi North 5.8 mph - N/A   Clear
3:15 AM 61.9 °F 16.2 °F 17% 30.05 in 10.0 mi NNW 5.8 mph - N/A   Clear
3:35 AM 66.0 °F 15.8 °F 14% 30.05 in 10.0 mi Calm Calm - N/A   Clear
3:55 AM 61.3 °F 16.7 °F 18% 30.06 in 10.0 mi Calm Calm - N/A   Clear
4:15 AM 64.9 °F 18.0 °F 16% 30.06 in 10.0 mi NNE 4.6 mph - N/A   Clear
4:35 AM 62.6 °F 18.1 °F 18% 30.06 in 10.0 mi NW 5.8 mph - N/A   Clear
4:55 AM 58.1 °F 15.8 °F 19% 30.07 in 10.0 mi Calm Calm - N/A   Clear
5:15 AM 57.4 °F 16.0 °F 20% 30.07 in 10.0 mi SW 3.5 mph - N/A   Clear
5:35 AM 60.3 °F 16.3 °F 18% 30.07 in 10.0 mi Calm Calm - N/A   Clear
5:55 AM 57.0 °F 15.6 °F 20% 30.08 in 10.0 mi West 3.5 mph - N/A   Clear
6:15 AM 57.6 °F 15.8 °F 19% 30.09 in 10.0 mi SW 4.6 mph - N/A   Clear
6:35 AM 60.1 °F 16.2 °F 18% 30.09 in 10.0 mi West 3.5 mph - N/A   Clear
6:55 AM 63.1 °F 16.3 °F 16% 30.09 in 10.0 mi WNW 3.5 mph - N/A   Clear
7:15 AM 66.0 °F 15.8 °F 14% 30.10 in 10.0 mi Calm Calm - N/A   Clear
7:35 AM 68.0 °F 14.9 °F 13% 30.11 in 10.0 mi Calm Calm - N/A   Clear
7:55 AM 69.4 °F 14.9 °F 12% 30.11 in 10.0 mi Calm Calm - N/A   Clear
8:15 AM 70.7 °F 14.0 °F 11% 30.12 in 10.0 mi Calm Calm - N/A   Clear
8:35 AM 72.5 °F 14.5 °F 11% 30.12 in 10.0 mi NE 3.5 mph - N/A   Clear
8:55 AM 73.2 °F 15.3 °F 11% 30.12 in 10.0 mi Calm Calm - N/A   Clear
9:15 AM 74.7 °F 15.6 °F 11% 30.12 in 10.0 mi ESE 3.5 mph - N/A   Clear
9:35 AM 76.3 °F 16.5 °F 10% 30.11 in 10.0 mi Calm Calm - N/A   Clear
9:55 AM 77.5 °F 16.5 °F 10% 30.11 in 10.0 mi Calm Calm - N/A   Clear
10:15 AM 78.6 °F 16.7 °F 10% 30.11 in 10.0 mi SE 5.8 mph - N/A   Clear
10:35 AM 80.1 °F 18.1 °F 10% 30.10 in 10.0 mi SE 8.1 mph - N/A   Clear
10:55 AM 81.9 °F 19.8 °F 10% 30.09 in 10.0 mi SE 10.4 mph - N/A   Clear
11:15 AM 83.8 °F 20.1 °F 10% 30.09 in 10.0 mi South 8.1 mph 17.3 mph N/A   Clear
11:35 AM 84.7 °F 22.1 °F 10% 30.08 in 10.0 mi South 11.5 mph - N/A   Clear
11:55 AM 86.0 °F 24.1 °F 10% 30.07 in 10.0 mi SSE 10.4 mph 23.0 mph N/A   Clear
12:15 PM 87.8 °F 14.4 °F 7% 30.07 in 10.0 mi SSE 17.3 mph 25.3 mph N/A   Clear
12:35 PM 87.6 °F 15.3 °F 7% 30.06 in 10.0 mi South 20.7 mph 29.9 mph N/A   Clear
12:55 PM 89.4 °F 14.9 °F 6% 30.05 in 10.0 mi SSE 16.1 mph 23.0 mph N/A   Clear
1:15 PM 89.6 °F 14.9 °F 6% 30.04 in 10.0 mi South 20.7 mph 27.6 mph N/A   Clear
1:35 PM 90.1 °F 14.7 °F 6% 30.03 in 10.0 mi South 18.4 mph 27.6 mph N/A   Clear
1:55 PM 90.1 °F 15.3 °F 6% 30.03 in 10.0 mi South 18.4 mph 26.5 mph N/A   Clear
2:15 PM 90.5 °F 15.4 °F 6% 30.01 in 10.0 mi South 16.1 mph 24.2 mph N/A   Clear
2:35 PM 90.9 °F 14.4 °F 6% 29.99 in 10.0 mi SSE 17.3 mph 28.8 mph N/A   Clear
2:55 PM 92.3 °F 13.1 °F 5% 29.99 in 10.0 mi South 18.4 mph 24.2 mph N/A   Clear
3:15 PM 92.5 °F 12.0 °F 5% 29.97 in 10.0 mi South 15.0 mph 26.5 mph N/A   Clear
3:35 PM 91.8 °F 10.9 °F 5% 29.96 in 10.0 mi South 8.1 mph 24.2 mph N/A   Clear
3:55 PM 92.5 °F 9.5 °F 5% 29.96 in 10.0 mi South 15.0 mph 28.8 mph N/A   Clear
4:15 PM 92.3 °F 8.2 °F 4% 29.96 in 10.0 mi South 16.1 mph 23.0 mph N/A   Clear
4:35 PM 92.7 °F 7.9 °F 4% 29.95 in 10.0 mi SSE 15.0 mph 24.2 mph N/A   Clear
4:55 PM 92.8 °F 8.2 °F 4% 29.93 in 10.0 mi South 19.6 mph 27.6 mph N/A   Clear
5:15 PM 91.6 °F -1.5 °F 4% 29.92 in 10.0 mi SW 17.3 mph - N/A   Clear
5:35 PM 92.7 °F 3.0 °F 4% 29.92 in 10.0 mi WSW 18.4 mph 24.2 mph N/A   Clear
5:55 PM 91.0 °F 4.3 °F 4% 29.92 in 10.0 mi SW 19.6 mph 24.2 mph N/A   Clear
6:15 PM 89.8 °F 6.6 °F 4% 29.92 in 10.0 mi SSW 15.0 mph 23.0 mph N/A   Clear
6:35 PM 88.9 °F 5.5 °F 4% 29.93 in 10.0 mi South 15.0 mph 25.3 mph N/A   Clear
6:55 PM 88.0 °F 5.0 °F 4% 29.93 in 10.0 mi SW 12.7 mph 18.4 mph N/A   Clear
7:15 PM 87.1 °F 5.4 °F 5% 29.94 in 10.0 mi WSW 16.1 mph 20.7 mph N/A   Clear
7:35 PM 85.8 °F 5.0 °F 5% 29.95 in 10.0 mi WSW 9.2 mph 19.6 mph N/A   Clear
7:55 PM 84.7 °F 4.6 °F 5% 29.96 in 10.0 mi West 15.0 mph 21.9 mph N/A   Clear
8:15 PM 83.8 °F 4.1 °F 5% 29.96 in 10.0 mi West 15.0 mph 19.6 mph N/A   Clear
8:35 PM 82.9 °F 5.2 °F 5% 29.97 in 10.0 mi West 15.0 mph 20.7 mph N/A   Clear
8:55 PM 81.9 °F 6.1 °F 6% 29.98 in 10.0 mi West 13.8 mph - N/A   Clear
9:15 PM 80.1 °F 6.4 °F 6% 29.98 in 10.0 mi West 8.1 mph - N/A   Clear
9:35 PM 78.4 °F 7.0 °F 6% 29.98 in 10.0 mi West 10.4 mph - N/A   Clear
9:55 PM 77.9 °F 7.5 °F 7% 29.99 in 10.0 mi WSW 5.8 mph - N/A   Clear
10:15 PM 73.4 °F 6.8 °F 8% 30.00 in 10.0 mi SW 3.5 mph - N/A   Clear
10:35 PM 74.7 °F 8.8 °F 8% 30.00 in 10.0 mi ESE 5.8 mph - N/A   Clear
10:55 PM 70.3 °F 8.6 °F 9% 30.01 in 10.0 mi SE 4.6 mph - N/A   Clear
11:15 PM 69.4 °F 8.4 °F 9% 30.00 in 10.0 mi Calm Calm - N/A   Clear
11:35 PM 71.8 °F 8.6 °F 9% 30.00 in 10.0 mi Calm Calm - N/A   Clear
11:55 PM 68.2 °F 7.3 °F 9% 30.00 in 10.0 mi Calm Calm - N/A   Clear